Tracking 25711 objects as of 22-May-2022
HD Live streaming from Space Station
objects crossing your sky now

GEARRS-3

Track GEARRS-3 now!
10-day predictions


NORAD ID: 51097
Int'l Code: 2022-003D
Perigee: 496.0 km
Apogee: 504.5 km
Inclination: 45.0 °
Period: 94.5 minutes
Semi major axis: 6871 km
RCS: Unknown
Launch date: January 13, 2022
Source: United States (US)
Launch site: Pegasus launched from Western Range Air Space (WRAS)
aabbcc
Your satellite tracking list
Your tracking list is empty




NASA's NSSDC Master Catalog

Two Line Element Set (TLE):
1 51097U 21003D   22142.47327645  .00011290  00000-0  46511-3 0  9990
2 51097  44.9844 213.5794 0006188 292.6773  67.3454 15.24238538 19591
Source of the keplerian elements: AFSPC